{"data":{"norad_id":56807,"epoch":"2026-05-25T02:27:19.114848Z","epoch_age_seconds":73060,"freshness":"FRESH","line1":"1 56807U 23078AS  26145.10230457  .00000262  00000+0  29727-4 0  9996","line2":"2 56807  70.0001 131.6204 0003865 263.8359  96.2360 14.98328304164617","mean_motion":14.98328304,"eccentricity":0.0003865,"inclination_deg":70.0001,"raan_deg":131.6204,"arg_perigee_deg":263.8359,"mean_anomaly_deg":96.236,"bstar":2.9727e-5,"rev_number":16461,"period_min":96.107107911912,"perigee_km":569.37488411002,"apogee_km":574.7473872689,"semimajor_km":6950.1981356895,"source":"CELESTRAK","updated_at":"2026-05-25T13:38:18.159539Z"}}